Regional Weather Roundup
Issued by NWS

Home | Current Version | Previous Version | Graphics & Text | Print | Product List | Glossary On
Versions: 1 2 3 4 5 6 7 8 9 10 11 12 13 14 15 16 17 18 19 20 21 22 23 24 25 26 27 28 29 30 31 32 33 34 35 36 37 38 39 40 41 42 43 44 45 46 47 48 49 50
000
ASUS43 KIND 022159
RWRIN

WEATHER ROUNDUP FOR INDIANA
NATIONAL WEATHER SERVICE INDIANAPOLIS IN
600 PM EDT TUE SEP 02 2014

NOTE: "FAIR" INDICATES FEW OR NO CLOUDS BELOW 12,000 FEET WITH NO
SIGNIFICANT WEATHER AND/OR OBSTRUCTIONS TO VISIBILITY.

* - STATION DOES NOT REPORT WEATHER SUCH AS PRECIPITATION OR FOG.

+ - STATION NOT QUALITY CONTROLLED BY THE NATIONAL WEATHER SERVICE.
    USE DATA WITH CAUTION...ESPECIALLY DEWPOINT AND RELATIVE
    HUMIDITY OBSERVATIONS.

INZ001>003-010>013-019-020-022300-
NORTHWEST INDIANA

CITY           SKY/WX    TMP DP  RH WIND       PRES   REMARKS
KNOX *+        SUNNY     80  62  55 W8        29.90S
LA PORTE +     SUNNY     76  64  66 CALM      29.92S
MONTICELLO +   MOSUNNY   78  68  71 W8        29.91S
VALPARAISO     SUNNY     81  61  50 W12       29.91S

$$

LMZ046-743>745-022300-
SOUTHERN LAKE MICHIGAN

STATION/POSITION TIME  TEMP WIND        PRES
                       AIR  DIR/SP/G
                 (UTC) (F)  (DEG/KT/KT) (MB)
MICHIGAN CITY    2100   73   20/  7/  7   N/A

$$

INZ004-005-014>016-021>024-022300-
NORTH CENTRAL INDIANA

CITY           SKY/WX    TMP DP  RH WIND       PRES   REMARKS
ELKHART        SUNNY     79  55  44 NW8       29.92S
GOSHEN         SUNNY     76  62  62 W9        29.91F
SOUTH BEND     MOSUNNY   80  59  48 N8        29.92S

$$

INZ006>009-017-018-025>027-022300-
NORTHEAST INDIANA

CITY           SKY/WX    TMP DP  RH WIND       PRES   REMARKS
ANGOLA *+      MOSUNNY   79  64  61 NW8       29.90F
FORT WAYNE     PTSUNNY   76  67  73 W10       29.91F

$$

INZ028-029-035-036-043>045-051>053-022300-
WEST CENTRAL INDIANA

CITY           SKY/WX    TMP DP  RH WIND       PRES   REMARKS
GREENCASTLE +  MOSUNNY   77  66  69 NW6       29.94S
LAFAYETTE      PTSUNNY   76  69  79 W5        29.91F
TERRE HAUTE    MOSUNNY   80  67  64 NW8       29.93F

$$

INZ030>032-037>040-046>048-054>057-064-065-022300-
CENTRAL INDIANA

CITY           SKY/WX    TMP DP  RH WIND       PRES   REMARKS
COLUMBUS       PTSUNNY   79  70  73 W3        29.94S
FRANKFORT +    PTSUNNY   76  67  74 SW8       29.94S
INDIANAPOLIS   PTSUNNY   78  64  61 W10       29.93S
-EAGLE CREEK   MOSUNNY   79  64  60 W7        29.92F
KOKOMO *+      PTSUNNY   79  66  65 W10       29.92S
MT COMFORT *+  MOSUNNY   79  64  61 NW9       29.94S
SHELBYVILLE    MOSUNNY   79  67  66 W7        29.93S

$$

INZ033-034-041-042-049-050-058-059-022300-
EAST CENTRAL INDIANA

CITY           SKY/WX    TMP DP  RH WIND       PRES   REMARKS
MUNCIE         PTSUNNY   76  65  68 W9        29.93F

$$

INZ060-061-067>069-081>083-085>088-022300-
SOUTHWEST INDIANA

CITY           SKY/WX    TMP DP  RH WIND       PRES   REMARKS
EVANSVILLE     MOSUNNY   83  71  67 NW7       29.93R

$$

INZ062-063-066-070>080-084-089>092-022300-
SOUTH CENTRAL AND SOUTHEAST INDIANA

CITY           SKY/WX    TMP DP  RH WIND       PRES   REMARKS
BLOOMINGTON    PTSUNNY   76  69  79 NW3       29.94S
SEYMOUR +      MOSUNNY   81  61  50 W6        29.94

$$




USA.gov is the U.S. government's official web portal to all federal, state and local government web resources and services.